This is the latest recevied weather packets stored in our database for station/object F4GQK-13. If no packets are shown the sender has not sent any weather packets the latest 10 day(s).
| Time | Temp. | Humidity | Pressure | Rain* | Wind** | Luminosity | Snow |
|---|---|---|---|---|---|---|---|
| 1777710903 | 19.44° C | 83% | 1019.9 hPa | 0 mm | - | 561 W/m² | - |
| 1777710605 | 18.89° C | 85% | 1019.9 hPa | 0 mm | - | 511 W/m² | - |
| 1777710305 | 17.78° C | 88% | 1020.1 hPa | 0 mm | - | 374 W/m² | - |
| 1777710005 | 17.78° C | 89% | 1020.1 hPa | 0 mm | - | 272 W/m² | - |
| 1777709705 | 17.22° C | 90% | 1020.1 hPa | 0 mm | - | 215 W/m² | - |
| 1777709405 | 17.22° C | 90% | 1020 hPa | 0 mm | - | 174 W/m² | - |
| 1777709105 | 17.22° C | 90% | 1020.2 hPa | 0 mm | - | 189 W/m² | - |
| 1777708805 | 16.67° C | 90% | 1020.2 hPa | 0 mm | - | 157 W/m² | - |
| 1777708505 | 16.67° C | 90% | 1020.2 hPa | 0 mm | - | 149 W/m² | - |
| 1777708203 | 16.67° C | 90% | 1020.1 hPa | 0 mm | - | 126 W/m² | - |
| 1777707905 | 16.67° C | 90% | 1020 hPa | 0 mm | - | 128 W/m² | - |
| 1777707605 | 16.67° C | 91% | 1020 hPa | 0 mm | - | 154 W/m² | - |
| 1777707305 | 16.67° C | 91% | 1020.2 hPa | 0 mm | - | 170 W/m² | - |
| 1777707005 | 16.67° C | 92% | 1020.1 hPa | 0 mm | - | 203 W/m² | - |
| 1777706705 | 16.11° C | 93% | 1020.3 hPa | 0 mm | - | 181 W/m² | - |
| 1777706406 | 16.11° C | 94% | 1020.2 hPa | 0 mm | - | 191 W/m² | - |
| 1777706104 | 15.56° C | 95% | 1020.2 hPa | 0 mm | - | 196 W/m² | - |
| 1777705805 | 15.56° C | 96% | 1020.3 hPa | 0 mm | - | 205 W/m² | - |
| 1777705504 | 15° C | 96% | 1020 hPa | 0 mm | - | 224 W/m² | - |
| 1777705205 | 15° C | 97% | 1020 hPa | 0 mm | - | 153 W/m² | - |
| 1777704905 | 15° C | 97% | 1020.2 hPa | 0 mm | - | 130 W/m² | - |
| 1777704605 | 14.44° C | 97% | 1020.2 hPa | 0 mm | - | 184 W/m² | - |
| 1777704304 | 14.44° C | 97% | 1020.3 hPa | 0 mm | - | 132 W/m² | - |
| 1777704005 | 14.44° C | 97% | 1020.1 hPa | 0 mm | - | 113 W/m² | - |
| 1777703705 | 14.44° C | 98% | 1020.3 hPa | 0 mm | - | 100 W/m² | - |
* Rain latest hour (hover to see other rain measurements)
** Current wind speed in m/s (hover to see current wind gust speed)